Wind_Speed
18 16 14 15 13 10 7 1 1 1 1 2 2 3 3 6 4 2 5 5 2 4 5 4 6 9 5 3 6 4 1 3 3 3 4 2 5 9 8 4 4 8 14 20 23 24 24 23 22 20 20 19 18 18 17 16 16 16 15 14 13 13 13 13 14 15 16 14 13 10 7 14 16 15 14 14 13 11 11 14 17 20 19 18 17 17 16 16 17 17 16 16 16 16 16 17 18
17 13 11 12 10 6 2 1 2 1 2 4 3 4 3 4 4 5 7 9 6 4 4 6 7 7 3 2 2 0 3 1 1 2 2 1 5 7 3 2 3 8 15 19 23 24 25 24 22 21 20 18 18 18 18 17 17 16 15 14 13 13 14 13 14 14 16 15 14 12 9 14 16 15 15 14 14 11 10 13 17 19 20 20 19 18 17 16 17 17 17 16 17 16 16 17 18
15 12 11 11 6 2 1 2 2 2 4 5 3 3 3 4 6 8 9 11 8 2 5 5 5 5 3 2 2 3 3 2 3 1 1 3 3 5 5 1 2 8 16 19 22 25 26 25 23 21 19 18 18 19 19 19 17 17 15 14 14 13 14 14 14 14 15 16 16 14 11 15 17 15 15 15 15 12 10 11 15 18 19 21 20 18 18 18 18 18 17 17 18 17 16 17 18
14 12 11 8 2 2 2 1 1 3 4 4 2 4 5 6 8 9 9 9 5 4 5 5 3 2 5 4 1 2 2 1 3 3 1 3 4 4 7 3 4 9 15 18 21 25 26 26 24 23 21 21 22 21 21 20 18 16 14 14 14 13 13 14 15 15 15 16 16 15 13 14 16 15 15 16 15 13 11 9 12 16 17 19 18 17 18 19 19 18 18 17 18 17 16 17 19
13 12 8 4 2 1 1 1 1 2 4 3 1 4 7 8 8 8 7 5 4 6 6 6 3 2 3 3 1 1 2 1 3 6 3 3 5 4 7 5 3 9 13 17 21 24 26 25 25 26 26 26 24 21 21 20 18 16 14 14 14 13 13 13 15 16 15 16 16 16 15 14 15 15 14 16 16 14 12 10 10 13 15 18 18 18 20 20 19 19 19 17 18 17 16 17 19
12 10 5 5 2 1 1 2 2 3 3 2 2 3 5 6 7 6 2 3 1 4 7 6 4 1 2 0 2 2 2 2 2 6 6 5 6 4 5 5 2 6 13 17 20 21 23 25 25 27 26 25 22 21 21 20 18 16 15 15 14 13 12 13 15 17 16 16 16 17 16 14 13 14 14 15 16 14 12 11 10 10 13 16 17 19 21 21 19 19 19 18 17 17 17 17 19
11 7 2 3 2 1 1 2 2 3 3 2 2 3 3 4 4 5 6 4 2 1 3 3 4 5 2 1 3 3 7 5 3 5 7 6 5 3 4 4 3 3 9 14 18 20 21 25 26 26 26 24 23 22 21 20 19 18 16 16 14 12 12 12 15 19 17 16 17 17 16 14 13 14 14 13 16 15 11 12 12 11 12 14 16 19 20 20 19 18 18 18 16 16 17 18 20
8 4 1 1 1 0 1 2 2 2 3 4 3 3 4 6 5 6 6 2 2 1 1 2 4 5 1 1 3 2 10 11 7 7 6 4 3 2 3 5 4 3 2 9 16 21 21 24 27 28 27 25 23 23 22 21 20 19 18 17 15 13 12 12 16 20 17 15 17 16 16 15 13 14 14 13 16 16 12 12 13 12 10 10 16 20 19 20 19 17 17 17 17 17 18 18 20
5 2 1 1 1 2 2 2 1 2 3 5 4 5 3 3 3 4 6 3 2 3 3 4 5 4 1 4 3 1 9 11 8 8 8 6 4 2 3 5 4 4 2 4 12 20 23 25 29 29 28 26 24 23 23 23 21 20 19 17 15 13 12 12 16 20 17 15 17 17 16 16 14 14 14 14 16 17 13 12 13 12 11 9 15 19 18 20 19 18 17 16 17 17 18 19 21
3 1 1 1 2 3 3 2 1 2 4 5 5 5 3 2 1 1 4 4 3 4 3 2 3 3 2 3 2 1 7 10 8 9 11 10 7 5 5 7 6 6 4 1 6 16 22 25 29 30 28 27 25 24 25 24 22 21 20 18 16 14 13 13 16 18 18 17 16 17 16 16 15 14 15 15 16 17 14 13 13 13 12 10 12 16 18 19 20 20 19 16 17 17 17 19 21
1 1 1 1 2 4 4 2 2 3 5 5 6 5 4 4 4 4 3 3 3 3 3 2 2 2 4 3 1 3 9 12 10 11 11 11 10 9 10 10 9 8 5 1 5 13 20 22 23 27 26 24 24 23 24 25 23 21 20 18 17 15 14 14 17 17 18 17 16 16 15 16 16 16 16 16 17 17 16 14 14 14 13 11 11 14 18 20 20 20 19 16 17 17 18 20 22
2 1 1 1 3 3 2 2 2 4 5 4 5 5 2 1 1 2 3 3 1 2 1 1 1 2 4 2 1 4 12 13 11 13 13 13 15 14 13 13 11 8 6 2 5 9 15 18 16 19 23 21 21 21 21 23 23 22 20 19 17 16 15 15 17 18 18 17 16 16 16 16 17 17 17 17 17 17 17 16 15 15 15 13 12 13 16 20 19 18 18 16 17 17 18 21 23
2 2 3 2 2 2 3 2 2 3 4 3 3 5 4 3 3 4 1 4 3 4 2 4 5 1 4 1 1 3 9 11 12 17 18 19 20 18 17 17 16 12 8 4 1 4 6 12 11 12 19 21 21 21 21 22 23 22 21 19 18 16 16 16 17 18 18 17 17 17 16 17 17 18 18 18 18 18 18 16 16 16 16 15 13 12 15 19 18 17 17 16 17 17 18 22 25
1 1 3 1 1 3 3 2 1 1 3 4 2 4 4 3 2 5 2 4 4 2 2 5 4 1 2 1 1 2 5 9 13 18 20 22 22 22 22 21 21 19 16 11 8 8 7 4 7 9 15 19 21 22 21 22 22 22 21 19 19 17 16 17 17 18 17 17 17 17 17 18 18 18 19 19 19 19 18 17 17 17 18 16 15 14 15 19 20 18 17 16 16 17 18 21 25
2 1 2 1 1 2 2 1 2 3 3 4 2 2 3 2 1 4 4 1 2 2 3 6 6 2 1 0 1 0 4 9 12 16 19 21 23 24 24 23 23 23 22 19 16 13 13 13 6 4 8 11 16 23 20 21 22 20 21 20 18 18 17 17 17 17 17 17 16 16 17 18 18 19 19 19 19 19 18 18 18 18 18 17 16 15 15 18 20 18 17 16 17 19 19 20 25
2 1 1 2 2 3 1 1 3 2 3 3 3 2 4 1 1 3 1 3 1 3 4 5 6 3 2 3 2 4 9 12 12 16 19 20 21 23 23 24 23 23 25 24 22 19 17 15 10 5 3 6 7 19 21 19 21 20 20 20 19 18 17 18 17 17 17 17 17 17 17 18 19 19 19 20 20 19 19 19 19 19 17 17 17 16 15 17 18 18 18 16 17 20 20 21 23
2 1 1 3 3 3 3 2 3 3 3 3 4 3 4 1 1 3 2 2 3 4 5 3 5 6 6 7 11 15 17 16 15 16 21 23 22 23 24 24 25 24 26 27 27 25 21 18 14 11 6 6 5 9 20 20 19 20 20 19 19 19 18 18 18 18 18 17 17 18 18 19 20 21 21 20 20 20 20 20 20 19 18 17 17 17 15 15 16 17 18 17 16 18 20 22 22
1 1 2 2 3 3 5 4 3 3 1 1 3 3 4 2 2 1 2 5 6 6 5 5 8 11 12 16 20 22 22 23 23 22 24 24 22 21 21 22 26 27 28 29 29 28 25 23 20 16 13 9 8 3 11 19 20 20 20 20 20 20 20 19 19 19 18 18 18 19 19 20 22 22 23 22 22 21 21 21 21 19 18 17 17 17 16 16 17 17 18 17 17 18 20 23 22
1 2 2 2 3 3 4 3 2 1 0 2 1 3 3 2 0 1 2 3 5 6 4 5 9 11 14 17 20 23 26 27 26 26 24 22 20 18 18 19 23 26 29 30 30 30 27 25 24 21 19 14 12 10 4 9 17 21 20 20 20 20 20 20 20 20 19 19 19 20 21 22 23 24 24 24 24 23 22 22 23 21 19 18 18 18 18 18 18 17 18 18 18 19 21 24 23
1 1 2 3 3 3 1 1 3 3 2 4 1 2 3 1 1 2 4 4 5 5 3 4 7 9 10 12 15 20 25 26 24 24 22 20 20 18 17 18 20 22 26 29 30 29 28 26 25 25 22 19 18 15 10 5 5 13 18 20 21 20 20 21 21 21 21 21 21 21 21 23 25 26 26 26 26 25 24 24 24 24 22 20 19 18 19 19 19 18 18 18 19 20 22 24 23
1 2 3 3 2 2 5 4 3 3 3 5 2 2 3 2 2 2 5 5 4 3 4 4 7 9 9 9 12 17 20 21 22 22 20 20 21 20 19 19 19 20 24 29 30 28 28 28 26 25 24 22 22 20 15 11 7 2 8 14 21 22 19 20 21 21 22 22 22 23 22 22 25 26 27 26 26 27 27 27 26 25 25 23 21 20 20 21 21 21 20 20 20 21 22 23 23
1 2 4 3 2 2 5 4 2 3 3 4 3 3 2 1 3 3 4 4 1 3 6 8 9 10 9 9 12 15 17 18 19 20 19 19 19 21 22 23 24 24 27 31 31 29 27 27 26 26 25 23 21 20 18 16 13 10 6 4 12 20 20 20 21 22 23 23 23 23 23 22 24 26 27 27 27 28 28 29 28 27 27 26 23 21 21 22 23 23 22 22 22 23 22 22 22
1 3 4 5 4 3 3 1 1 3 5 4 3 2 1 3 4 4 6 6 5 7 9 10 11 11 11 12 13 14 15 15 17 18 17 17 19 20 21 24 26 26 28 31 31 30 28 26 26 26 26 24 22 20 18 17 16 15 13 10 5 8 15 19 22 24 23 25 24 24 25 24 24 25 27 27 28 28 29 31 31 30 29 28 26 23 23 24 25 25 24 24 25 24 22 21 20
3 3 4 5 6 5 4 3 2 4 6 4 4 4 3 4 4 4 8 8 9 10 10 12 12 13 15 15 14 14 14 15 16 16 15 16 16 18 20 23 26 26 28 32 31 30 29 27 27 27 26 24 24 21 19 18 17 17 15 12 12 9 6 10 16 24 26 26 26 26 26 26 26 26 26 27 27 28 29 30 31 32 31 31 28 25 25 26 26 27 26 26 27 25 23 22 21
5 5 3 2 4 5 5 5 4 4 4 3 5 6 3 5 6 5 8 9 9 10 10 11 11 14 16 15 14 13 14 16 16 16 16 16 16 19 25 27 29 30 30 32 32 31 29 28 27 27 26 26 24 22 21 20 18 17 16 14 14 13 11 12 12 16 25 28 27 27 28 29 28 27 27 27 26 27 28 29 31 32 33 32 29 27 28 28 28 29 29 28 29 28 26 25 23
5 6 3 1 2 3 4 5 5 5 3 3 5 3 3 5 6 5 8 10 9 10 11 10 11 14 14 12 13 13 14 16 17 17 16 16 19 23 26 27 30 30 29 31 32 32 30 27 27 27 26 26 25 23 22 21 20 19 18 17 14 14 13 13 15 10 16 26 29 29 29 31 31 30 29 28 28 27 27 28 29 31 33 34 31 29 30 29 29 29 31 31 30 30 29 28 27
3 4 3 1 4 4 3 5 5 4 3 4 6 4 3 3 2 3 6 9 9 12 12 11 13 13 12 11 12 14 16 17 17 17 19 20 21 23 23 24 28 28 29 33 33 32 30 28 27 26 26 25 24 23 22 21 21 21 20 18 15 14 13 11 14 14 9 17 27 31 31 31 31 32 31 30 29 28 28 28 28 29 31 34 34 32 30 29 29 29 31 32 32 32 31 31 30
1 2 2 1 4 4 0 4 6 3 2 5 7 3 1 1 1 3 8 7 9 13 12 11 13 11 11 12 11 13 16 17 17 19 21 21 20 21 22 23 25 25 28 31 32 31 30 28 28 26 26 25 24 23 22 22 21 21 20 18 17 16 15 13 12 14 10 6 17 26 31 33 32 32 32 31 31 30 29 29 29 29 29 31 33 32 30 29 29 29 32 34 34 34 33 33 31
1 2 1 4 6 4 2 3 4 3 3 5 6 3 1 1 3 4 10 8 10 14 12 11 12 10 10 11 10 12 15 17 19 20 20 18 18 19 20 22 23 23 25 29 31 31 30 29 28 27 25 24 24 23 23 22 21 21 21 19 18 17 17 16 14 14 13 8 5 11 20 29 33 32 32 32 30 30 30 29 29 30 30 29 30 30 29 29 29 30 32 33 33 32 33 33 31
1 2 2 2 5 4 5 3 3 4 3 6 6 1 3 1 4 7 9 8 12 14 11 10 9 9 9 9 10 11 15 19 20 20 19 19 18 19 20 22 23 22 25 29 31 31 31 30 28 27 25 24 23 23 23 23 23 22 22 21 19 18 19 19 18 16 15 14 11 4 4 11 22 29 30 31 30 29 30 30 29 29 30 30 29 29 30 30 30 30 31 31 31 30 31 32 31
2 1 2 1 1 4 6 3 5 5 3 5 7 2 5 1 4 3 6 6 13 13 10 10 9 8 9 9 10 10 14 18 19 21 21 21 20 19 21 22 25 25 26 29 30 30 31 30 29 28 25 23 23 23 23 23 24 24 23 23 22 21 21 22 21 20 18 18 18 12 5 6 4 16 22 25 28 30 30 30 31 30 29 30 29 30 30 30 30 31 31 31 30 30 30 31 31
3 1 2 1 3 4 7 4 7 8 3 3 7 2 4 2 6 3 4 6 12 14 10 10 10 10 10 9 10 9 11 16 20 22 23 23 22 21 21 23 25 26 25 27 29 31 31 31 30 28 25 23 22 22 23 23 23 24 23 24 25 24 24 25 24 24 22 19 22 20 12 13 13 5 12 16 18 24 28 26 27 29 29 30 29 29 28 28 28 29 31 31 31 31 31 32 32
3 2 3 2 3 2 5 5 6 10 4 1 4 2 2 2 6 5 7 8 11 13 10 11 10 10 10 8 9 8 9 13 18 22 24 24 23 22 21 23 24 25 25 26 29 31 32 33 32 30 27 25 23 21 21 22 23 24 24 25 26 27 28 29 28 26 26 23 23 26 20 16 17 13 6 8 5 9 19 20 19 20 23 27 28 28 29 28 29 29 31 31 31 31 32 32 32
2 1 2 2 3 2 2 5 3 6 7 3 2 5 4 3 6 8 8 7 11 12 10 10 9 9 10 8 9 9 9 11 14 20 23 24 24 24 22 22 23 25 27 26 28 31 32 34 34 32 29 26 24 22 21 20 21 23 25 26 26 28 29 30 30 29 29 28 27 28 26 21 19 18 13 8 8 9 3 7 12 13 15 21 23 24 25 27 27 28 30 31 32 32 32 32 32
4 3 2 1 1 2 2 4 2 4 7 5 6 6 5 5 7 8 9 7 12 12 10 10 10 10 10 9 9 9 10 10 13 19 22 23 25 25 24 24 24 27 30 29 30 33 33 34 36 34 31 29 27 24 21 19 19 20 22 25 26 28 30 30 31 32 32 31 30 30 29 26 23 21 18 14 14 18 19 14 7 5 5 10 15 15 15 18 21 24 27 28 30 32 33 33 33
5 4 4 3 2 2 4 5 4 3 5 5 7 7 6 6 6 8 8 8 12 11 10 9 9 9 9 8 8 8 9 10 13 18 21 23 25 25 25 25 26 29 33 33 34 36 36 36 37 37 35 32 30 27 25 23 21 20 22 26 27 28 29 30 31 32 33 33 32 31 31 30 27 26 24 20 18 20 23 25 23 20 16 13 10 8 6 2 3 10 19 24 26 29 31 32 32
1 2 2 2 3 3 5 4 6 2 4 1 6 10 7 6 6 6 6 8 11 10 9 9 8 8 8 8 8 8 9 9 14 18 21 24 26 26 26 26 28 32 35 36 36 37 37 36 37 39 38 35 33 31 30 28 26 24 23 24 26 28 29 30 31 32 32 33 33 32 32 31 30 29 29 27 24 25 25 25 26 25 23 23 21 18 18 17 15 13 6 9 15 21 27 30 31
1 0 1 2 3 4 6 3 5 4 2 2 7 11 7 5 6 6 6 9 10 8 8 8 8 8 7 8 9 8 7 8 14 19 21 24 26 27 27 28 30 32 33 35 35 35 36 37 37 38 39 38 35 32 29 28 26 22 20 19 20 24 27 29 30 32 31 31 33 33 32 32 31 30 29 29 27 25 24 24 25 25 24 23 21 20 20 19 18 20 21 16 11 8 12 20 28
2 2 3 3 3 2 5 4 4 5 2 3 6 9 5 5 7 7 8 9 7 7 8 8 8 8 8 8 8 8 8 9 12 16 20 23 24 26 27 28 29 29 30 33 34 34 35 37 36 36 38 38 37 34 30 27 24 22 20 19 19 22 25 27 28 29 29 29 31 33 33 32 31 29 28 27 26 23 22 22 22 23 23 22 21 20 19 19 19 19 20 19 18 16 12 8 8
2 3 4 3 3 1 2 4 4 5 4 5 7 7 3 3 5 7 7 7 7 8 10 9 8 8 8 8 8 9 10 10 11 13 17 20 22 25 27 27 28 29 30 33 34 33 34 35 34 34 35 37 37 35 33 28 24 23 22 22 21 21 22 24 25 28 30 30 31 33 33 32 31 29 27 26 26 24 22 21 21 21 21 21 21 20 19 19 19 19 17 16 15 16 16 16 16
1 2 4 3 2 2 3 3 3 4 4 6 8 4 1 3 3 4 5 5 7 7 8 9 8 7 8 8 9 9 10 10 10 11 14 18 21 22 24 25 26 29 30 31 32 32 31 33 33 32 33 36 36 36 36 34 29 27 25 26 25 24 26 27 29 32 34 34 33 32 32 31 30 29 28 27 26 25 23 22 21 20 20 21 20 20 18 17 16 16 15 14 13 13 14 14 17
1 1 2 4 4 4 3 2 1 3 1 2 5 1 3 2 3 3 3 4 6 6 7 9 7 7 8 8 9 9 8 9 10 11 13 17 19 20 23 26 27 28 28 28 29 30 30 32 32 33 34 35 36 36 36 36 37 36 33 30 28 29 30 30 30 31 33 34 32 31 31 31 30 29 28 27 26 26 25 24 23 22 20 20 20 19 18 17 16 15 14 12 11 10 11 12 16
1 1 2 3 3 3 3 4 3 2 3 2 3 3 3 1 2 4 4 4 6 5 7 8 7 7 7 7 7 8 8 8 9 12 14 16 18 19 22 24 26 26 26 27 28 30 31 32 33 33 34 35 36 36 36 35 36 38 36 31 27 26 26 26 28 28 30 32 32 31 31 31 31 30 29 27 26 26 26 25 24 23 22 20 19 19 20 19 17 15 13 12 11 10 11 11 14
2 1 1 1 5 5 2 4 2 2 2 2 1 3 3 3 2 5 6 5 5 5 6 7 6 7 7 7 7 8 8 8 7 9 13 16 17 18 19 21 24 24 25 27 28 30 30 31 32 33 34 35 36 36 36 36 34 34 35 34 31 28 25 25 29 31 32 33 35 34 33 33 32 31 31 29 27 26 26 26 25 24 23 22 21 20 20 19 17 16 13 13 12 10 11 11 12
2 2 1 3 6 5 3 4 2 1 1 2 3 2 1 4 1 4 4 3 2 4 6 6 6 7 7 7 7 7 7 8 8 9 11 14 16 17 18 20 22 24 25 26 27 28 29 30 32 33 35 36 36 36 37 37 35 33 33 35 35 33 30 30 32 35 35 36 37 37 36 35 34 33 33 31 29 27 27 26 26 25 24 23 23 22 20 19 18 17 15 14 13 11 11 10 11
1 2 3 4 4 4 5 5 3 2 1 5 6 3 1 3 2 3 4 3 1 4 5 5 6 6 6 7 7 7 6 6 9 10 11 13 15 16 17 19 22 24 25 26 27 29 30 31 32 34 35 35 35 36 37 37 37 36 34 33 34 35 35 35 36 38 38 38 39 39 38 38 37 35 35 34 31 29 28 27 27 27 26 24 23 23 22 20 19 17 16 14 14 14 13 12 12
1 4 4 4 4 4 4 2 4 2 3 5 5 5 3 3 1 2 1 1 1 4 5 5 6 7 6 6 6 6 6 5 7 9 11 12 14 16 18 20 22 24 26 27 28 30 31 33 35 36 34 33 34 35 36 37 37 37 35 33 32 33 34 36 38 38 39 39 39 39 39 39 39 38 37 36 34 32 30 29 28 28 27 25 24 23 23 22 21 18 16 15 15 16 16 15 14
3 3 4 3 3 4 4 4 3 1 5 3 2 4 4 4 2 2 3 4 3 3 6 6 7 6 6 5 5 5 5 5 5 7 9 11 13 16 18 19 21 24 28 29 29 30 32 34 36 38 36 34 33 33 34 35 36 36 35 33 32 31 32 33 34 35 37 36 36 38 38 39 39 39 38 38 37 35 34 32 30 29 29 28 26 25 22 21 22 21 19 18 17 16 16 16 17
4 3 4 3 1 2 2 2 0 3 5 3 2 1 2 3 1 2 4 6 6 5 6 7 7 6 5 4 4 4 4 4 5 6 8 10 12 14 16 16 18 22 26 29 30 31 33 35 36 37 37 35 33 33 33 33 34 35 34 33 32 30 30 30 30 32 34 32 33 36 37 37 38 38 39 39 38 37 36 35 33 31 30 29 28 27 24 22 22 22 21 20 19 18 18 17 17
3 3 4 3 2 1 2 2 0 3 4 3 2 1 2 1 1 3 4 5 6 7 8 7 7 6 5 5 4 4 4 5 5 6 7 9 11 12 13 14 15 17 21 26 30 30 31 34 35 34 35 34 34 34 33 32 31 32 32 32 31 30 30 29 28 29 30 29 30 33 35 34 34 36 36 36 37 37 36 35 34 32 30 29 29 28 25 23 23 23 22 20 20 19 19 19 18
2 2 4 3 4 3 3 3 2 3 3 4 3 1 2 1 1 1 3 5 6 7 6 6 6 5 4 4 4 4 4 4 4 5 8 9 10 11 11 12 13 15 17 22 27 29 30 31 33 33 33 34 34 33 33 32 30 30 30 31 30 30 29 29 28 28 28 27 28 30 32 32 32 33 34 34 35 36 36 35 34 33 31 29 29 29 27 24 23 24 23 21 20 20 19 20 20
1 1 3 2 2 3 2 3 3 2 1 3 2 1 0 2 1 1 3 5 5 6 5 5 5 4 4 4 3 4 4 4 4 5 7 9 10 10 11 12 12 14 15 17 21 25 27 28 30 32 31 32 32 32 32 31 30 29 30 30 30 30 30 29 29 30 29 28 28 29 30 30 31 32 32 33 34 35 35 34 33 34 32 30 29 29 28 26 24 25 26 23 22 21 20 20 20
0 2 1 1 2 5 3 2 1 2 0 1 2 1 0 2 1 1 3 4 4 5 4 4 4 4 4 3 3 3 4 4 4 5 6 8 9 10 11 12 12 13 14 16 17 19 23 24 27 30 30 30 31 31 30 30 30 30 30 31 31 30 31 29 28 30 30 29 29 30 30 31 31 31 32 32 33 34 34 33 33 33 33 31 29 28 27 26 24 25 27 26 25 23 21 20 20
3 1 2 1 1 4 3 0 2 2 2 2 1 3 2 2 1 2 0 4 5 4 4 4 4 4 4 3 3 3 3 3 4 4 6 7 8 9 10 11 13 13 13 15 15 17 21 22 23 27 29 29 30 31 29 29 29 29 30 30 31 30 30 30 28 29 30 31 31 31 31 32 31 31 31 31 32 33 32 32 33 33 32 31 30 28 27 25 23 26 29 28 28 26 23 22 21
3 2 1 2 2 1 1 2 1 1 2 2 3 2 1 2 1 0 3 7 6 5 5 4 4 4 4 4 4 3 3 3 2 3 4 5 7 8 9 11 12 14 14 14 15 17 21 23 23 25 27 27 28 29 29 28 28 28 28 29 29 29 29 29 29 29 29 31 32 31 31 31 31 30 30 30 32 32 32 32 32 32 32 31 31 29 27 26 24 27 30 29 30 30 26 24 23
3 2 3 2 3 3 1 2 2 2 2 2 3 3 2 1 1 1 6 8 7 6 5 4 5 5 4 4 4 3 3 2 2 2 3 4 6 7 8 10 11 13 14 13 15 17 21 24 23 23 26 26 26 28 28 27 27 27 27 28 28 28 28 29 30 29 29 30 31 31 30 30 30 30 30 30 31 31 31 32 31 31 31 31 31 29 29 27 24 27 29 27 28 30 28 26 25
3 3 3 3 2 0 1 1 1 3 2 2 1 3 3 2 1 2 5 7 7 7 6 5 4 4 4 4 4 3 3 3 2 3 3 3 5 6 7 8 9 12 13 13 15 16 19 23 23 22 26 27 26 28 28 26 27 27 26 27 27 28 28 28 30 29 29 30 30 30 30 30 29 30 30 30 30 30 30 31 30 30 30 30 31 30 29 28 25 27 30 26 26 29 28 26 26
2 1 0 0 1 1 2 2 3 2 2 3 3 3 4 1 0 3 2 6 6 6 6 4 3 4 4 4 4 4 4 3 3 3 4 3 4 5 6 7 10 12 13 14 15 14 16 22 22 21 25 26 24 27 28 26 26 26 25 26 27 27 27 28 30 30 29 29 30 30 30 29 29 29 29 29 30 30 30 30 30 30 30 29 30 30 29 28 26 27 30 28 26 28 27 27 27
Wind_Direction
142 141 144 148 149 145 158 158 103 171 157 223 187 166 232 195 185 160 182 180 184 237 195 141 137 147 134 175 200 207 210 154 166 155 208 243 122 138 161 196 201 191 194 195 193 192 189 188 190 185 182 183 183 181 182 182 183 181 180 183 182 184 183 180 179 185 191 189 185 184 180 173 176 180 178 176 175 180 180 175 165 159 159 160 161 158 154 149 144 146 146 146 145 145 145 144 146
147 144 144 143 138 136 178 14 138 183 168 222 198 166 216 187 184 200 193 186 204 231 168 145 153 169 134 59 118 130 308 303 105 140 200 45 117 114 117 210 233 196 187 192 194 192 190 189 189 186 184 182 184 185 185 186 186 185 184 184 186 191 188 187 184 185 192 193 190 187 183 178 181 183 180 177 174 180 188 182 171 167 165 166 167 162 157 150 147 149 150 149 147 148 149 149 149
150 142 138 134 118 81 45 60 161 178 192 222 196 183 197 181 207 218 211 199 211 174 132 134 139 181 179 28 72 181 265 345 37 94 53 43 94 78 53 42 236 198 187 189 193 192 192 190 189 187 183 181 188 191 191 190 189 189 188 188 191 195 190 188 187 187 192 194 192 188 186 184 185 185 182 180 177 179 192 189 178 177 174 171 169 166 160 152 150 152 155 154 151 152 155 157 154
146 138 136 129 90 20 88 100 198 170 209 213 174 224 201 207 217 217 226 215 202 124 122 136 135 231 186 204 225 194 270 355 15 11 69 46 37 48 46 54 196 194 191 194 194 193 193 191 190 188 186 188 192 194 197 194 191 190 192 196 199 200 196 192 190 189 191 193 191 188 191 190 189 188 185 183 180 178 188 197 188 183 181 177 170 170 164 153 153 156 160 159 156 156 158 162 159
142 139 128 83 86 137 123 190 195 187 215 178 181 236 202 216 225 226 239 212 189 156 146 145 169 304 160 197 173 145 287 320 19 23 42 48 35 41 42 45 174 195 201 197 193 193 193 192 193 194 195 195 191 192 199 195 192 193 196 201 203 204 204 201 195 191 191 194 191 187 193 194 191 191 188 185 184 179 182 200 198 183 183 184 175 171 165 154 158 162 166 167 163 160 159 163 163
138 133 90 41 86 161 135 210 200 212 231 172 193 245 210 220 222 213 173 120 151 163 152 151 168 122 120 26 60 88 337 327 342 19 19 15 20 21 31 37 95 189 205 197 190 192 193 198 201 200 199 197 191 193 199 195 193 196 199 202 201 203 206 207 197 190 192 196 191 186 193 195 192 192 190 188 187 180 178 194 200 186 185 192 180 170 165 157 164 170 172 173 166 162 160 164 164
136 129 61 57 69 26 165 226 207 199 247 235 202 237 218 225 220 152 127 109 52 64 146 171 151 115 150 175 85 31 21 23 9 23 20 11 10 3 11 19 48 160 209 201 193 196 200 206 207 204 203 199 193 195 201 196 195 199 201 203 199 201 206 203 189 186 192 196 191 186 191 194 193 194 192 189 187 181 179 192 197 193 189 198 186 172 171 162 166 176 176 176 168 163 164 165 164
134 129 11 121 96 20 209 232 213 202 252 273 255 261 224 206 205 143 142 152 132 171 148 192 142 117 259 67 95 357 29 36 40 38 33 22 15 354 6 11 22 73 196 205 200 205 208 211 210 208 205 200 196 197 202 200 198 200 200 202 198 199 204 192 180 184 191 193 189 187 190 192 194 195 193 189 189 185 182 193 196 195 192 198 189 181 179 167 166 176 176 176 170 167 170 169 166
122 108 29 149 147 181 224 204 231 258 263 281 282 290 276 197 215 149 140 144 151 154 166 182 147 144 239 59 73 325 22 27 47 52 46 43 39 29 25 25 14 44 85 198 215 216 212 212 210 210 207 200 198 199 203 202 201 202 200 201 196 196 201 186 179 185 189 192 189 188 192 193 195 196 194 190 190 190 186 193 197 197 193 195 197 191 182 168 165 175 177 175 170 169 176 175 171
93 21 137 144 161 195 225 172 195 270 265 274 267 269 260 180 234 222 135 141 157 144 175 149 114 152 131 74 58 11 16 25 50 48 42 48 52 55 57 53 41 49 69 152 237 228 217 213 211 210 207 202 200 201 205 203 202 203 200 199 195 194 195 185 180 184 187 192 191 190 196 196 198 198 197 193 191 194 190 191 198 201 199 197 203 197 186 173 168 176 184 179 170 172 181 181 176
90 355 111 137 180 208 218 165 190 257 276 291 283 269 231 200 167 188 172 146 154 141 185 104 105 155 99 81 99 26 33 43 44 39 44 55 60 64 71 70 67 71 75 134 232 231 217 212 217 212 205 204 204 204 206 205 204 204 202 199 195 193 191 185 181 184 188 192 196 196 199 200 203 202 200 198 193 196 197 195 194 198 203 199 199 199 191 182 174 178 189 186 176 177 184 184 179
133 160 90 155 201 210 194 134 207 246 283 298 289 304 326 286 113 193 172 132 142 109 134 61 270 190 102 88 149 30 38 46 46 56 64 68 68 71 76 78 78 85 85 130 229 243 224 214 224 216 204 206 209 211 211 209 209 204 203 200 196 194 190 188 185 187 192 195 200 200 200 203 206 207 205 203 198 197 199 199 195 195 201 201 199 203 196 189 184 183 191 191 183 182 186 185 180
130 152 116 170 189 165 151 131 229 243 288 276 249 301 350 51 24 309 135 87 63 87 23 329 308 285 97 90 99 29 42 48 59 71 73 73 73 74 75 73 71 71 70 61 352 336 263 232 244 230 208 208 211 215 214 213 214 207 205 202 198 196 191 191 190 190 195 197 201 202 202 204 206 209 208 207 204 199 198 201 199 196 200 203 200 202 198 193 192 190 193 194 189 187 188 187 182
128 127 135 177 103 123 155 145 253 206 266 265 243 306 353 73 27 329 8 66 61 84 295 317 329 25 89 119 78 20 51 61 67 73 73 74 71 70 69 66 65 61 58 52 44 42 25 339 283 254 220 217 215 213 211 213 217 211 208 206 201 200 196 194 195 194 196 199 200 202 205 206 206 208 210 210 206 201 200 201 201 200 202 204 201 202 200 197 196 195 198 198 192 191 191 190 183
141 79 123 163 129 141 173 161 194 187 248 269 306 319 61 92 143 29 359 360 78 24 319 350 11 52 38 322 135 59 75 72 68 70 71 71 66 63 61 57 57 53 51 50 49 47 38 32 10 281 242 242 224 209 208 211 215 216 211 209 207 203 202 199 200 200 199 200 201 201 205 207 207 208 210 212 209 203 202 201 200 201 203 204 203 206 204 202 201 197 202 204 196 192 194 195 184
120 90 113 199 180 160 196 195 185 207 253 252 309 327 98 93 185 106 290 270 86 36 29 6 3 64 62 19 50 51 63 67 67 69 68 64 57 55 51 47 46 44 42 42 42 40 38 37 37 23 292 296 253 207 206 211 213 218 216 212 211 208 207 205 206 207 206 205 206 206 206 207 207 209 211 213 212 207 204 203 202 202 204 205 205 209 207 205 205 200 205 210 202 197 198 199 187
84 90 177 203 173 162 197 207 185 191 238 262 329 358 110 71 328 133 153 54 75 67 65 51 28 64 62 45 51 53 58 60 63 65 57 49 42 41 38 35 35 35 33 33 34 33 36 38 34 25 10 348 340 210 209 216 215 218 220 216 214 214 212 210 211 212 212 211 211 212 211 211 210 210 211 212 215 212 209 207 205 203 206 207 205 209 209 205 206 203 209 215 209 204 203 204 196
105 156 205 201 169 176 189 190 202 182 180 245 328 5 104 95 349 80 78 53 78 83 66 77 72 68 58 53 55 59 61 56 54 54 47 38 31 29 25 23 26 26 24 26 28 29 32 34 32 25 21 18 18 42 203 213 217 219 223 221 218 219 217 214 214 214 216 214 213 214 215 217 215 214 212 212 216 217 216 213 211 211 212 213 209 208 210 209 205 203 212 218 211 208 207 208 203
156 180 210 209 176 193 176 164 213 194 169 170 346 359 80 107 289 39 71 49 73 87 72 97 89 69 51 45 47 53 59 52 48 49 43 35 27 22 16 12 16 18 19 20 22 24 27 29 29 27 24 23 26 35 89 193 210 216 222 225 224 223 220 217 217 217 219 219 217 216 218 221 220 217 214 214 215 218 220 219 219 220 220 221 217 211 211 213 209 207 217 219 210 210 210 210 207
196 211 207 210 192 250 282 254 236 214 164 137 90 349 49 5 305 57 105 79 65 91 78 114 107 78 55 39 36 44 52 47 42 44 41 37 30 24 18 11 9 8 12 17 19 21 23 24 27 27 25 24 26 31 47 76 199 218 220 224 227 227 224 221 219 219 222 224 223 221 221 222 222 220 217 216 216 218 221 221 220 223 225 225 225 218 212 214 214 211 217 218 209 209 212 213 212
160 182 200 228 176 252 282 275 223 178 138 134 135 61 53 349 13 75 125 93 57 87 46 60 97 85 66 44 36 39 44 41 37 38 37 35 29 24 20 16 13 9 12 18 20 20 21 21 22 25 25 24 26 28 35 42 37 296 233 230 230 229 229 228 225 223 223 225 225 224 224 222 220 220 219 218 218 219 221 222 221 223 226 227 228 224 215 213 214 211 213 214 209 208 213 214 215
133 214 219 242 158 190 260 262 174 136 98 104 102 90 99 360 30 33 111 109 75 80 60 62 73 72 65 51 44 40 41 39 35 34 33 32 27 21 17 16 18 16 17 19 19 19 19 20 20 22 25 26 28 29 28 30 33 29 5 299 241 232 231 234 234 230 227 226 226 224 224 221 218 219 220 220 221 221 221 222 223 223 226 229 229 227 219 213 214 212 209 210 210 211 216 218 218
179 259 234 226 204 213 245 246 191 140 101 111 143 137 84 75 57 27 67 94 84 74 76 74 67 66 68 58 50 42 40 38 35 32 29 29 26 19 14 14 15 14 16 17 18 18 18 20 20 21 24 24 28 32 30 26 27 28 22 16 353 258 238 238 239 236 234 230 227 224 223 221 216 218 221 221 222 223 223 222 222 223 225 228 230 229 224 216 214 213 208 209 213 214 218 223 223
199 251 256 222 211 220 210 174 191 146 132 164 145 103 90 106 101 64 77 94 92 85 82 78 72 63 61 56 50 46 42 38 35 32 29 30 27 21 18 16 16 16 16 17 18 19 17 18 19 21 24 22 23 30 32 28 25 26 25 21 16 360 303 274 254 240 236 234 231 226 223 222 218 217 219 220 221 223 225 224 222 221 223 227 230 229 226 219 215 213 210 209 213 216 220 225 225
214 225 255 221 205 218 201 170 169 148 148 157 102 99 158 151 109 96 114 110 100 94 82 76 73 58 53 52 48 45 42 37 31 27 27 26 23 22 22 18 19 19 16 16 18 18 18 17 19 21 23 23 24 29 33 33 30 28 30 24 12 4 354 340 312 253 235 232 232 229 225 223 220 219 220 220 221 223 226 226 223 221 220 223 227 227 224 221 218 214 212 212 214 216 220 224 224
228 216 237 251 278 246 179 163 171 157 159 134 110 120 191 160 108 93 122 119 111 95 77 69 67 58 52 51 47 45 42 35 28 24 23 21 21 22 19 15 16 17 14 16 18 17 17 18 19 21 23 23 25 31 35 37 37 34 33 30 17 6 360 346 337 307 243 231 229 230 227 224 223 222 221 221 223 225 226 227 226 223 220 220 223 224 222 221 221 217 214 213 215 218 221 225 224
253 218 211 217 319 294 172 175 192 167 181 166 151 178 207 177 122 102 128 128 115 90 74 65 67 63 56 55 49 46 43 35 27 24 23 20 20 18 12 10 10 12 14 16 17 16 17 19 20 21 23 24 27 32 35 37 40 37 32 30 27 17 10 357 343 340 296 239 230 229 227 225 224 224 224 224 224 226 227 228 228 225 222 219 219 220 219 221 223 222 218 216 217 219 222 226 226
252 176 136 316 344 335 189 176 195 164 188 182 150 150 149 63 334 140 136 130 106 88 77 68 70 70 61 59 52 46 43 35 29 29 26 21 17 14 11 9 5 6 12 14 15 16 17 19 21 21 23 25 28 33 36 36 37 34 26 25 33 28 23 19 2 358 357 280 241 233 227 225 226 225 225 226 226 226 226 227 228 226 224 221 220 219 217 220 224 225 223 220 218 220 223 227 229
170 105 90 302 1 360 267 192 196 172 182 185 135 90 4 357 346 112 122 117 96 86 79 71 69 69 62 59 55 49 42 35 32 31 26 21 17 15 13 10 6 4 9 13 16 19 19 19 20 21 23 26 29 34 37 38 38 33 24 25 33 33 30 30 28 23 27 23 302 246 223 222 224 226 226 226 227 226 226 226 226 226 226 225 223 221 218 220 224 226 226 222 220 221 223 226 228
138 72 84 309 3 333 258 211 181 179 188 179 143 165 267 346 45 99 119 117 96 85 79 77 72 66 62 57 56 51 42 36 33 29 23 20 17 15 14 11 11 8 8 14 18 20 22 22 21 21 23 26 30 35 39 41 43 37 28 29 35 38 37 33 35 36 36 39 24 358 205 209 214 218 223 226 228 228 228 227 226 227 227 227 226 224 223 223 224 226 228 225 224 224 224 225 227
113 41 38 37 291 282 272 226 162 176 227 167 144 225 242 108 28 91 131 120 99 91 83 79 74 67 63 56 57 51 44 39 32 27 21 19 16 15 14 11 13 13 11 14 16 20 24 25 24 23 23 26 30 36 40 43 47 44 34 34 38 41 44 38 37 39 40 42 36 37 51 43 154 200 212 220 225 226 226 227 228 229 228 227 227 226 225 225 224 226 228 226 226 228 227 227 229
62 87 329 315 199 262 297 273 176 180 233 159 143 209 224 95 355 352 107 97 93 93 85 76 71 66 62 53 53 49 42 38 32 26 20 17 16 14 14 12 14 13 11 12 16 21 26 28 27 26 25 27 30 34 40 44 49 49 39 38 42 43 46 44 39 39 43 45 39 42 54 44 47 118 194 211 222 223 222 223 225 226 225 224 225 226 226 227 228 229 230 229 228 230 230 230 230
2 124 210 233 195 252 309 292 211 186 181 175 163 160 175 52 6 17 66 76 86 89 82 74 70 64 61 54 49 45 38 33 29 24 18 16 16 13 13 13 14 13 12 12 17 22 25 27 28 27 27 28 30 32 38 42 47 51 43 40 45 44 44 43 40 41 43 46 42 41 50 54 49 59 121 187 205 217 221 223 223 223 221 219 220 223 227 230 231 232 233 232 231 231 230 230 231
297 166 204 226 186 181 292 308 278 181 174 189 104 94 100 50 24 30 38 64 85 84 79 74 69 65 63 57 50 43 37 34 27 21 18 17 16 15 14 14 14 15 18 17 20 24 25 28 29 27 28 30 31 31 34 39 44 51 46 42 46 47 45 42 42 44 43 44 43 41 46 55 57 56 68 91 82 78 122 210 215 222 225 220 219 222 226 228 230 233 233 232 232 231 229 228 229
204 192 190 238 226 190 237 286 291 166 182 170 100 87 97 64 40 43 29 44 79 81 80 74 66 66 62 56 53 44 40 38 29 22 20 20 19 18 16 16 17 19 24 24 24 28 29 29 30 29 30 30 32 33 34 37 41 49 48 42 44 47 46 44 44 42 41 42 43 42 44 52 61 60 59 64 67 65 57 56 86 133 183 202 206 211 220 226 231 234 235 235 232 231 231 231 229
178 170 145 160 193 247 245 257 264 173 161 162 133 124 112 77 45 47 36 45 73 75 71 70 63 61 58 55 53 45 44 37 28 26 24 24 22 22 20 19 20 23 27 28 28 30 30 29 29 31 31 30 31 33 33 34 34 39 43 39 37 39 42 44 44 43 40 40 41 42 43 48 60 63 60 63 65 63 56 50 56 67 73 81 101 111 96 83 261 247 240 238 237 236 235 233 231
121 119 130 173 179 261 270 265 293 251 139 136 125 116 95 75 46 33 37 50 62 62 63 62 57 56 53 54 50 44 47 35 29 29 26 25 24 24 24 21 22 25 27 28 28 29 29 29 28 30 31 31 32 31 31 32 28 27 29 29 27 28 35 39 40 42 41 37 38 41 41 42 53 60 59 61 64 62 58 52 50 55 59 60 62 65 62 57 47 34 4 257 248 247 242 237 233
310 138 229 250 207 251 265 241 311 320 115 74 107 105 72 56 50 28 41 56 52 52 64 63 58 59 52 49 47 42 43 33 29 28 24 24 23 24 25 24 24 24 24 25 27 26 27 30 29 29 31 33 34 31 31 32 32 29 23 23 27 27 31 35 34 36 38 37 36 37 38 39 45 52 54 54 57 58 55 50 47 46 47 50 54 56 56 56 52 42 35 25 5 320 264 246 236
202 176 181 248 244 256 284 276 335 357 87 137 128 106 69 54 62 50 54 66 63 57 66 68 62 62 53 47 44 37 35 30 28 26 23 23 22 24 25 25 25 25 24 24 25 26 27 29 29 29 30 33 34 34 34 34 36 40 37 33 36 33 32 34 33 33 35 37 36 34 36 39 43 47 51 52 52 54 54 50 47 44 41 41 42 44 47 50 51 49 42 30 18 13 15 354 280
168 165 164 222 258 155 285 300 339 9 65 134 129 102 97 99 69 61 62 74 80 70 68 68 63 65 61 54 48 41 36 29 26 25 22 22 22 24 24 23 24 25 25 24 25 25 26 27 29 29 30 32 34 36 37 38 42 46 48 46 45 42 35 31 32 34 34 33 34 34 33 37 42 45 48 52 52 52 54 52 48 45 42 39 35 33 37 40 41 44 45 36 21 9 9 12 11
74 113 143 191 233 198 228 271 319 16 55 119 117 88 187 169 118 86 84 81 77 69 69 64 57 62 62 57 51 45 42 35 29 26 21 22 23 24 24 24 25 27 26 25 25 26 26 28 31 31 31 32 33 37 39 41 46 46 45 46 46 42 35 29 25 24 26 27 28 30 31 33 38 43 45 49 53 51 51 51 48 44 42 40 36 28 28 34 33 34 40 36 28 12 356 352 3
38 72 160 210 210 209 223 239 16 54 305 185 129 140 284 157 145 135 113 81 69 60 63 63 55 55 54 51 47 41 43 40 35 31 25 24 24 24 25 25 26 27 26 26 27 29 30 30 34 34 34 34 34 36 39 41 45 45 43 39 36 32 30 27 20 15 18 24 25 28 30 31 35 40 41 44 49 50 48 48 47 44 41 40 37 30 25 31 29 27 33 29 25 17 358 344 348
128 180 195 233 177 150 172 165 137 145 237 253 143 202 257 310 189 165 129 91 81 69 64 64 58 56 53 50 48 40 37 36 35 33 28 26 24 23 23 24 26 26 25 28 29 31 33 33 35 37 36 37 36 36 39 41 42 44 44 41 35 31 26 23 22 22 23 26 29 31 32 32 33 36 38 40 43 45 44 44 44 42 40 38 38 34 27 28 29 27 29 24 19 15 3 342 338
172 218 147 77 86 87 134 148 154 205 243 325 135 188 248 269 219 155 133 99 81 75 71 70 63 62 59 54 51 46 41 35 32 31 28 26 25 24 24 24 26 27 27 29 31 31 33 34 36 38 39 38 38 37 40 42 40 40 41 42 40 35 29 24 26 29 29 29 33 35 34 33 34 35 36 37 39 41 40 39 39 37 36 35 34 35 30 27 29 29 28 23 16 12 5 346 334
193 211 119 83 93 93 90 95 76 346 49 286 248 148 232 257 173 129 155 136 100 97 85 75 68 64 61 57 51 47 45 40 37 35 30 27 26 26 26 27 28 29 30 30 32 32 34 36 37 39 40 38 39 39 40 42 42 40 39 39 38 36 33 32 31 31 30 31 33 35 34 34 34 35 35 35 36 39 38 36 35 34 33 32 31 32 32 30 30 27 23 19 13 9 7 355 344
187 122 78 48 65 71 67 84 76 39 55 239 231 160 189 246 146 148 204 224 169 118 94 84 81 71 63 58 50 45 41 38 37 36 34 30 29 29 28 30 31 30 31 33 34 35 36 37 39 40 39 37 38 39 39 40 41 41 39 36 35 33 32 33 32 31 30 30 30 31 31 31 32 33 33 33 34 36 37 35 33 31 29 30 30 29 29 29 30 26 19 14 9 7 9 9 4
358 68 55 28 23 41 44 46 73 58 267 239 208 177 189 240 202 142 197 307 148 136 124 113 96 79 70 61 51 48 40 34 33 30 31 30 30 32 31 32 31 30 33 35 36 36 36 37 39 41 40 37 38 39 39 39 39 39 38 36 34 31 30 31 31 29 28 28 26 25 27 28 29 30 30 31 33 34 35 34 32 30 27 27 28 28 28 27 27 23 17 14 9 6 7 10 11
48 65 68 50 351 16 25 360 50 170 250 252 211 185 183 222 242 70 44 19 34 122 136 121 101 83 76 70 60 58 48 39 34 27 25 23 24 26 27 28 29 31 34 35 35 36 36 38 40 41 40 38 36 38 39 37 37 37 36 36 35 31 29 30 28 26 26 24 21 21 24 24 26 27 28 29 30 31 32 31 31 30 28 26 25 24 26 29 28 23 18 17 13 8 8 8 8
69 92 89 91 337 11 14 325 177 225 252 269 282 242 166 212 235 65 54 40 42 73 101 106 105 99 90 86 74 67 60 48 41 33 26 23 22 21 21 22 23 27 30 33 36 36 37 39 39 38 38 37 36 38 39 37 35 35 33 34 34 31 31 30 27 25 25 23 20 22 23 21 21 23 24 24 25 28 29 28 28 28 27 27 25 23 25 30 30 24 19 18 17 17 15 11 7
54 122 124 137 150 130 234 238 260 266 273 281 277 220 192 196 77 63 65 70 67 75 89 100 109 114 111 104 93 79 68 56 46 41 34 29 25 22 22 21 21 22 24 30 34 36 36 37 38 37 36 37 37 38 39 37 35 33 31 32 32 31 30 29 27 24 23 23 20 23 25 20 19 21 21 21 22 26 27 26 28 28 27 28 27 25 25 29 31 23 18 18 16 19 21 16 11
332 171 129 132 159 162 197 191 190 238 274 301 281 219 222 176 80 40 80 90 91 91 103 116 117 121 119 105 96 84 69 60 50 44 41 33 26 24 24 21 21 20 20 25 30 32 34 34 35 35 34 35 35 35 37 37 34 31 30 30 31 31 30 28 28 25 23 23 20 23 24 20 21 22 21 21 24 26 25 25 28 28 28 28 27 27 26 29 31 21 17 20 17 18 22 18 14
284 151 94 101 185 152 151 188 179 177 311 312 243 202 234 92 106 202 114 103 109 119 126 124 119 119 112 103 94 80 66 57 49 43 40 34 28 27 26 22 21 20 18 19 22 26 29 30 32 33 32 33 33 32 34 34 33 31 29 29 29 30 30 28 27 26 26 25 22 22 21 20 23 23 20 23 25 26 24 25 27 27 28 28 27 27 26 28 30 19 14 17 15 15 19 16 13
144 69 106 237 192 119 110 270 10 83 158 261 173 170 72 109 140 140 125 132 141 142 136 123 124 122 113 104 87 76 70 59 52 49 43 36 30 28 28 24 21 19 18 19 18 20 25 26 27 29 29 30 30 29 30 31 31 30 28 28 28 29 29 27 23 22 24 25 23 23 22 21 24 22 20 23 25 24 24 24 25 25 26 27 26 27 26 28 26 16 16 19 15 13 15 13 11
105 111 233 292 33 93 95 337 3 27 231 247 199 193 196 182 190 1 141 176 173 163 145 134 134 126 117 107 93 87 86 78 65 58 52 43 35 30 29 26 23 23 21 21 20 21 25 27 27 26 25 27 27 26 26 28 28 27 25 24 24 25 26 26 22 19 21 23 22 22 21 20 22 21 20 21 21 22 22 22 23 23 23 24 25 25 25 29 23 10 15 21 17 15 15 10 9
100 178 259 71 109 124 73 126 161 233 228 279 296 263 213 189 172 234 209 194 186 176 155 152 163 150 138 130 121 119 111 103 87 66 56 49 41 33 29 25 23 27 27 23 22 24 26 28 29 26 23 25 26 23 23 25 26 24 22 21 21 21 22 23 21 18 18 20 19 19 18 18 19 20 19 19 19 19 19 19 20 20 20 21 22 22 22 26 20 7 11 15 13 16 16 9 8
14 19 356 43 130 166 154 150 157 165 193 258 310 317 288 220 126 174 199 191 181 178 171 175 179 164 157 155 147 144 139 127 115 96 73 60 52 37 31 26 19 23 26 22 22 25 24 26 28 25 21 23 25 21 20 22 23 21 20 19 17 17 18 19 19 16 15 17 17 15 15 15 16 16 16 17 17 16 16 17 17 17 17 18 18 19 18 21 16 6 8 9 6 10 13 7 6
351 14 356 356 2 149 173 291 66 117 156 201 252 289 265 184 94 259 212 186 176 176 175 174 170 159 154 155 151 150 148 141 131 115 95 74 58 40 32 26 20 24 27 23 23 24 21 23 26 23 19 20 21 18 17 19 20 18 16 15 13 13 14 16 16 14 13 13 13 13 12 11 13 13 13 14 14 14 14 14 13 14 16 15 15 15 15 18 13 4 7 8 2 4 6 2 3
149 112 236 203 319 107 134 287 324 75 141 181 181 259 274 202 234 293 229 165 167 172 163 153 150 155 154 153 155 159 158 151 144 125 104 85 61 44 32 24 22 24 25 24 24 22 19 20 23 20 16 18 18 15 14 16 17 15 13 12 11 10 10 11 11 11 11 10 9 10 9 8 10 10 11 12 12 11 12 12 11 12 12 12 12 12 11 14 9 2 5 6 1 0 0 358 359
Height
792 793 793 794 794 795 798 798 807 812 813 819 814 813 808 798 798 799 801 799 797 791 785 787 787 788 792 795 794 790 789 791 796 804 807 791 783 786 785 786 786 786 787 790 792 793 795 796 797 798 800 801 802 803 804 804 804 805 805 806 806 807 807 807 807 808 809 810 811 812 813 813 814 815 815 816 816 817 817 817 818 818 819 820 821 821 821 821 822 823 824 825 826 827 828 828 829
792 793 793 794 795 797 800 799 809 816 817 819 812 809 804 796 800 799 797 796 792 785 782 785 786 786 787 788 788 791 791 788 787 789 790 785 786 786 785 786 786 786 786 789 792 793 795 796 797 798 799 801 802 803 803 804 804 805 805 806 806 807 807 807 808 808 808 809 811 812 813 813 814 815 815 816 816 817 817 817 818 819 819 820 821 821 821 822 822 823 824 825 826 827 828 828 829
792 793 794 795 796 798 800 802 811 816 817 817 811 803 797 798 800 795 791 788 784 781 783 785 788 788 788 791 791 794 793 787 786 786 786 785 786 786 787 787 787 788 787 790 791 793 795 795 797 798 800 802 802 802 802 803 803 804 805 805 806 807 807 807 808 808 808 809 810 811 812 813 814 814 815 816 816 817 817 818 818 819 819 820 820 821 821 822 822 824 824 825 825 827 828 828 829
792 793 794 795 797 801 804 808 810 813 815 813 810 802 794 796 794 790 786 783 782 782 785 787 790 787 788 794 791 792 792 788 787 786 786 787 787 787 787 787 789 789 789 791 791 792 794 795 797 797 799 798 798 799 800 801 802 803 804 805 805 806 806 807 807 808 808 808 810 811 812 813 813 814 815 816 816 817 818 818 818 819 819 819 820 821 821 822 823 824 824 825 825 826 827 828 829
793 794 795 795 799 804 806 810 810 811 811 806 805 799 792 791 788 787 784 782 783 783 784 786 790 787 786 790 788 792 793 789 788 786 787 788 788 788 788 789 789 790 791 792 793 794 794 795 795 795 795 795 796 798 799 801 802 802 803 804 805 805 806 806 807 807 808 808 809 810 811 813 813 814 815 816 816 817 818 818 818 818 819 819 820 821 821 822 823 823 824 825 825 826 827 828 829
793 794 795 795 800 803 807 811 811 811 804 798 798 793 790 789 786 786 784 784 783 783 783 785 788 788 789 788 787 792 792 791 789 788 788 789 788 788 788 789 789 791 791 792 794 795 795 795 794 794 794 795 797 798 799 799 801 802 802 803 804 805 805 805 806 807 808 808 809 810 811 812 813 814 815 816 816 817 817 818 818 818 819 819 819 821 821 822 823 823 824 825 825 826 827 828 829
793 796 797 799 802 804 809 812 811 811 801 794 795 791 788 788 787 785 785 785 785 785 783 785 784 787 792 789 790 792 791 791 790 790 790 789 789 788 789 789 790 790 791 792 794 794 794 793 793 794 795 796 797 797 798 798 800 801 802 802 803 804 804 804 805 807 807 808 808 809 811 812 813 814 815 816 816 817 817 818 818 819 819 819 820 821 821 822 823 823 824 824 825 826 827 828 829
794 797 800 803 808 808 810 811 810 810 800 793 791 789 787 786 786 784 785 786 787 787 785 785 782 788 792 787 793 795 791 792 791 792 790 789 789 789 789 789 790 790 791 792 793 793 792 791 792 793 793 795 796 797 797 798 799 800 801 802 802 803 803 804 804 806 807 808 808 809 810 812 813 814 815 816 816 817 817 818 818 819 819 819 819 820 821 822 823 823 824 825 824 825 827 828 829
794 798 802 804 809 811 810 810 809 807 800 793 790 787 786 786 786 783 785 787 786 786 786 785 782 790 792 790 796 795 792 794 792 792 791 790 790 790 790 790 791 791 792 792 791 790 790 790 791 791 792 793 795 796 797 798 799 799 800 801 802 802 802 803 804 805 807 808 808 809 810 811 812 813 815 815 816 817 817 818 818 819 819 819 819 819 820 822 823 824 824 825 825 825 827 828 829
795 798 802 804 808 810 810 810 809 806 800 793 789 786 786 787 788 787 786 787 786 785 786 785 784 788 791 795 799 796 795 795 792 793 792 792 791 791 791 791 791 791 792 792 791 790 790 791 791 791 791 792 793 794 796 797 798 799 799 800 801 801 802 802 803 805 806 807 808 809 810 811 812 813 814 815 816 816 817 818 818 819 819 819 819 819 821 822 823 824 824 825 825 826 826 828 829
799 800 801 805 809 811 810 810 810 806 799 793 789 784 785 786 787 789 787 786 786 786 786 785 788 788 791 799 800 797 796 794 794 794 794 793 792 792 792 792 792 792 792 792 791 791 791 792 792 792 792 794 794 795 796 797 797 798 799 799 800 801 801 802 802 804 805 807 808 809 810 811 812 813 814 814 815 816 816 817 818 818 819 819 820 820 821 822 822 823 824 824 826 826 826 827 829
801 803 803 808 810 810 809 810 810 805 799 796 792 785 787 787 787 790 787 787 788 787 787 788 789 787 793 801 800 798 796 796 796 796 795 794 793 793 793 793 793 793 792 792 791 790 790 791 792 792 793 795 796 797 797 798 798 798 799 799 800 800 800 801 802 803 805 806 807 808 809 810 812 812 813 814 815 816 816 817 817 818 819 819 820 820 821 822 822 823 824 825 825 826 826 827 828
800 803 806 809 806 807 808 810 809 805 801 797 794 790 788 789 792 793 789 788 789 790 790 790 789 787 796 802 799 798 798 798 798 797 796 795 795 795 794 794 793 793 793 792 791 791 791 791 792 793 793 794 796 796 797 799 799 798 799 799 799 799 800 801 802 803 804 805 807 808 809 810 811 812 813 814 815 815 816 816 817 817 818 819 820 820 821 822 822 823 824 824 825 826 826 826 827
800 801 804 808 804 805 808 809 808 806 803 796 794 792 790 791 795 795 792 791 791 793 792 790 788 789 799 803 802 801 800 800 799 798 797 797 797 796 795 795 794 794 794 793 793 792 792 792 792 793 793 794 795 795 795 798 800 799 799 799 799 799 799 800 801 802 803 804 806 807 808 809 811 812 813 813 814 815 816 816 816 817 818 818 819 820 820 821 822 823 823 824 825 826 826 826 826
799 800 802 806 806 807 808 807 806 806 803 796 794 793 792 794 793 794 797 797 795 792 792 791 789 793 801 804 805 803 801 801 800 800 799 798 797 797 797 796 796 795 795 794 794 793 793 793 793 792 793 794 794 793 794 796 799 800 799 799 799 799 799 799 800 801 802 803 804 806 807 809 810 811 812 813 814 815 815 816 816 816 817 818 819 819 820 820 821 822 823 823 824 825 826 826 826
798 800 804 807 808 810 809 805 805 806 802 796 794 792 793 795 793 795 797 797 795 793 794 797 794 797 802 804 805 803 802 802 801 800 798 798 798 797 797 797 797 796 796 796 795 794 794 793 792 792 792 792 792 792 794 796 798 800 799 799 799 799 799 799 800 801 802 802 803 805 806 807 809 810 811 812 813 815 815 816 816 816 817 817 818 819 819 820 821 822 822 822 823 824 825 826 826
798 801 806 807 807 810 808 803 803 803 799 796 794 791 793 795 794 794 794 794 797 797 798 801 800 800 803 805 806 804 804 803 801 800 799 799 800 799 799 799 799 798 798 797 797 796 795 794 793 792 791 791 791 792 794 796 797 798 799 799 799 799 798 798 799 800 801 801 802 803 805 806 807 809 810 811 812 814 815 816 816 816 816 816 817 818 819 820 820 821 822 822 823 824 824 826 826
800 804 806 806 806 806 802 799 800 798 797 797 796 793 793 795 794 792 793 796 799 800 801 802 802 803 805 806 806 805 804 803 803 802 803 803 803 803 803 803 802 802 801 799 799 798 796 795 794 794 793 791 791 791 792 794 795 796 798 798 798 798 797 798 798 799 800 801 802 802 804 805 806 807 809 810 811 812 814 815 816 816 816 816 816 817 818 819 820 820 821 822 823 823 824 825 825
801 803 805 804 802 799 796 796 797 795 796 797 796 795 793 795 795 792 796 801 801 802 805 804 804 806 807 807 808 807 806 806 807 807 808 809 809 809 809 808 807 805 805 803 801 800 799 797 796 795 793 792 791 790 789 791 793 795 797 798 798 797 797 797 797 798 799 800 801 802 803 804 805 806 807 808 809 811 812 814 815 815 815 815 815 816 817 818 819 819 820 821 822 823 824 824 824
801 802 805 803 797 795 794 794 795 794 795 796 797 795 794 795 794 793 799 805 804 805 806 805 806 810 812 812 811 810 809 810 812 812 813 814 815 815 814 813 811 810 809 807 805 803 801 799 798 796 794 793 792 790 788 789 791 793 795 796 797 796 796 796 796 796 797 798 799 800 801 802 803 805 806 807 808 809 811 812 813 814 814 815 815 815 816 817 818 819 819 820 821 822 823 824 824
801 802 804 800 796 797 795 793 793 793 794 795 797 796 796 795 794 796 800 804 807 807 808 808 809 813 816 816 815 814 814 814 815 816 817 818 818 818 818 817 815 814 813 810 808 804 803 801 799 797 796 794 792 790 789 789 790 791 792 794 795 795 794 794 794 795 795 796 798 799 800 801 802 803 804 805 806 808 809 810 811 813 813 813 813 814 815 816 817 818 818 820 820 821 822 822 823
801 802 801 798 798 799 795 793 794 793 794 795 797 796 797 796 797 800 800 803 810 811 812 813 814 816 818 819 819 818 818 819 820 820 820 821 821 821 819 819 817 815 814 812 809 807 805 803 801 799 797 796 794 792 791 791 790 790 791 791 792 793 793 793 793 793 793 794 795 797 798 799 800 801 802 803 804 806 807 808 809 811 811 812 812 812 813 814 815 817 817 818 819 819 820 821 822
801 801 799 798 798 798 796 794 794 793 793 795 796 796 796 798 801 804 804 808 814 816 817 818 819 820 821 821 821 821 822 823 824 824 824 824 824 823 822 820 819 817 816 814 812 810 807 805 804 801 799 798 796 794 793 793 791 791 791 790 790 791 792 792 791 791 792 793 794 795 796 796 798 799 800 801 802 803 804 805 806 808 809 810 810 811 812 813 813 815 816 817 817 818 819 820 821
801 801 798 796 796 797 795 794 794 793 793 794 795 795 797 799 803 807 811 816 819 819 820 820 822 823 822 823 824 826 827 827 827 828 828 828 827 826 825 823 822 820 818 816 814 812 810 807 805 803 801 800 798 795 794 794 793 792 791 790 790 790 790 790 790 789 789 791 792 793 794 795 795 796 797 798 799 801 802 803 804 805 807 808 808 809 810 811 812 813 814 815 816 817 818 819 820
802 800 797 796 795 795 794 793 794 793 793 794 794 796 798 799 802 809 816 819 821 821 822 823 823 824 824 826 829 830 830 830 830 830 830 830 829 828 826 825 823 821 819 818 816 814 812 810 807 805 803 801 799 796 795 794 794 793 791 790 790 790 789 789 788 787 787 788 789 791 792 793 793 794 795 796 797 798 799 801 802 803 804 805 806 807 808 809 810 811 812 813 814 815 816 817 818
800 798 797 796 795 794 794 794 794 794 794 795 796 798 799 799 802 811 818 820 822 822 823 825 824 826 829 831 833 833 833 833 833 832 832 831 830 828 827 827 825 823 822 820 818 816 814 812 809 806 804 802 800 798 796 796 795 794 791 790 791 791 790 789 789 786 785 785 786 788 789 790 791 792 793 794 795 796 798 799 800 801 802 803 803 804 805 807 808 809 810 811 812 813 814 815 816
797 797 796 797 796 795 795 794 794 795 795 794 796 798 800 801 801 810 820 821 821 822 825 827 827 830 834 835 836 836 835 836 836 835 834 832 831 830 830 829 827 825 824 821 819 818 816 813 811 808 806 804 801 799 798 797 796 794 793 793 793 793 790 790 789 785 783 784 784 785 786 788 789 790 791 792 793 794 796 797 798 799 800 800 800 801 802 804 806 807 808 809 810 810 811 813 814
796 795 796 797 797 795 796 795 795 796 796 795 795 799 802 802 802 809 818 822 821 823 828 830 831 834 836 837 838 838 838 839 839 837 836 836 835 835 834 832 830 828 826 823 822 820 817 815 812 810 807 805 802 800 799 797 795 794 795 794 793 792 791 790 788 785 782 782 783 784 784 785 786 787 789 790 791 792 793 795 796 797 798 799 799 799 800 802 804 805 806 807 808 808 809 810 811
795 795 797 798 796 795 796 796 796 796 795 793 795 801 805 806 809 813 818 822 823 825 830 833 834 837 838 840 840 841 842 842 841 840 841 841 840 839 838 836 834 831 829 827 824 822 819 816 814 811 809 807 804 802 800 798 797 796 795 794 791 790 790 790 788 786 783 782 782 781 780 782 784 785 787 788 789 790 791 793 794 795 796 797 798 799 799 800 802 803 804 805 805 806 807 808 809
795 797 798 799 799 798 795 795 796 796 794 792 796 804 809 812 817 819 821 822 822 827 832 835 837 840 841 842 843 844 845 845 845 845 845 844 843 842 840 839 836 834 831 829 826 824 821 819 816 813 811 808 806 804 802 800 798 797 796 795 792 790 790 790 788 787 784 782 782 781 779 779 781 782 785 787 788 789 790 791 792 793 794 796 797 798 798 798 799 801 802 803 803 804 805 806 807
797 799 801 803 804 800 795 794 796 797 795 792 795 804 809 816 822 821 822 821 821 829 835 837 840 842 844 845 846 848 849 849 849 849 848 847 845 844 842 841 838 836 834 831 828 826 823 821 818 815 813 810 808 806 804 802 800 799 799 797 795 793 792 791 789 787 784 783 784 782 779 779 778 779 782 785 787 788 788 789 790 791 792 794 795 796 796 796 797 798 799 800 801 802 803 804 804
800 802 804 808 807 801 795 794 795 794 794 794 797 805 810 819 827 824 823 823 823 832 838 841 844 845 847 848 850 851 852 853 852 851 850 849 847 846 844 842 840 838 836 834 831 828 825 822 820 817 814 812 809 808 806 804 802 800 801 800 799 796 794 792 791 789 786 785 786 783 780 781 780 777 781 785 786 787 787 787 788 789 790 791 793 794 794 794 796 796 797 798 799 800 801 801 802
803 802 803 807 807 805 800 792 792 792 792 796 797 804 814 824 832 828 826 829 829 836 843 846 848 849 851 853 854 855 856 855 854 854 853 851 850 848 847 845 843 841 839 837 833 830 826 823 821 819 816 814 811 810 808 806 804 802 802 802 800 798 795 794 792 791 788 786 786 784 781 781 782 780 782 785 786 786 787 787 787 788 788 789 790 792 793 793 795 795 796 797 798 798 799 799 799
805 805 805 807 807 807 803 792 792 793 792 798 799 808 825 834 837 835 833 833 834 840 846 849 851 852 854 856 858 859 859 859 858 858 857 855 853 851 849 847 845 843 840 839 836 832 829 826 823 821 818 816 814 812 810 808 807 804 804 803 801 799 797 796 794 792 790 788 787 785 783 782 783 783 783 785 785 785 786 786 786 787 787 787 788 790 791 792 793 794 795 796 796 797 797 797 797
800 805 806 807 807 806 804 795 793 794 793 800 805 818 836 841 840 841 840 838 839 845 849 851 855 856 858 860 861 863 863 863 863 863 861 858 856 853 852 850 847 845 842 840 838 834 831 828 826 823 820 817 815 814 812 810 808 806 805 804 803 800 799 798 796 794 792 791 789 787 786 784 783 784 785 787 787 786 785 785 785 785 786 786 787 788 790 791 792 793 794 794 795 795 795 795 795
798 803 803 802 803 803 801 796 794 796 796 800 805 820 838 844 846 847 847 846 845 850 853 855 859 860 861 863 864 866 866 866 867 866 864 861 859 857 854 852 850 847 844 841 839 835 832 830 827 824 821 819 817 814 812 810 809 807 806 805 805 803 802 800 798 797 796 794 792 791 789 787 785 786 787 787 788 787 787 787 786 785 786 785 785 786 787 789 790 791 792 793 794 794 794 795 795
803 805 804 803 803 801 797 794 795 796 796 805 813 826 843 849 852 854 852 852 853 857 860 861 864 864 866 867 867 869 868 869 869 867 865 863 861 859 856 854 852 848 846 843 840 837 835 833 830 827 824 822 819 816 815 813 812 810 809 808 809 808 806 803 801 800 799 798 796 794 792 791 789 788 788 787 787 788 789 790 789 788 787 786 786 786 787 788 788 789 790 791 792 793 792 793 794
805 808 805 805 805 800 796 794 798 796 797 816 826 832 849 856 858 860 858 858 861 864 866 866 868 869 869 871 870 871 871 870 870 868 866 865 862 861 858 856 853 850 848 846 844 842 839 836 833 831 829 825 823 822 820 818 817 816 815 813 813 812 809 806 805 803 803 803 800 798 797 795 793 791 790 789 788 789 790 791 791 790 789 788 788 788 787 786 787 788 789 791 791 792 791 791 793
807 810 807 807 805 802 799 795 799 797 797 819 828 833 854 862 861 864 863 865 869 868 869 870 871 872 873 874 873 873 873 872 871 870 868 867 865 863 861 859 857 855 853 850 847 845 842 839 837 835 832 829 827 825 824 822 821 819 818 817 815 813 812 810 809 808 806 805 804 802 800 798 796 794 793 792 792 791 791 791 792 792 792 791 790 790 787 786 786 787 788 791 792 792 791 790 791
808 808 807 806 804 803 799 795 800 802 803 817 827 838 857 863 863 867 868 868 872 872 872 873 873 875 876 876 876 876 875 875 874 873 872 870 868 866 864 862 860 858 855 852 850 847 845 843 841 839 836 834 831 829 827 825 823 822 820 819 817 815 814 813 811 809 807 806 804 803 802 801 799 798 797 795 794 793 793 792 793 793 793 792 792 791 789 788 788 788 788 790 792 792 791 791 791
810 810 806 803 804 804 801 800 800 803 810 816 821 829 841 853 860 867 871 870 872 874 874 876 876 877 878 878 878 878 878 878 877 876 875 873 871 869 868 866 863 861 858 856 854 851 850 847 844 842 840 837 835 832 830 828 824 822 820 818 816 815 813 812 810 809 808 807 806 805 805 805 803 801 800 798 796 795 794 794 794 794 794 793 793 794 793 790 791 790 789 791 792 792 791 791 791
809 813 811 809 808 806 804 803 800 803 809 809 808 810 822 847 861 865 871 872 874 876 876 878 879 879 880 880 880 881 880 880 880 879 878 876 874 872 870 868 865 863 862 860 859 856 853 851 848 845 843 840 838 836 833 831 828 825 823 822 821 820 819 818 818 817 815 812 811 810 809 808 806 803 801 799 798 797 796 796 796 796 795 795 795 796 796 792 792 792 791 791 793 793 792 792 792
804 812 816 815 811 810 807 803 803 806 807 804 804 804 815 842 857 863 872 874 876 878 878 881 881 881 883 883 883 883 882 882 881 881 880 878 877 875 872 870 868 867 866 864 861 859 856 853 851 848 846 844 842 840 837 834 833 831 830 830 829 829 828 828 827 825 822 819 816 814 812 810 808 805 802 800 798 797 797 797 798 798 798 798 797 797 796 794 793 793 793 793 793 793 793 793 792
806 813 816 812 809 811 810 806 805 806 806 806 804 804 810 823 842 862 870 871 877 880 880 883 883 884 885 885 886 885 885 885 883 883 882 881 879 877 876 874 872 870 868 866 863 861 859 856 854 851 849 847 845 844 841 838 837 836 835 835 834 834 833 832 830 827 824 821 818 815 814 812 810 807 803 801 799 798 797 797 798 798 798 798 798 796 795 795 794 794 794 794 794 794 793 794 793
809 816 815 811 810 810 810 810 810 809 811 810 803 807 811 816 842 868 866 863 873 880 883 884 885 886 887 887 887 887 887 886 885 885 884 883 882 880 879 877 875 873 870 868 866 864 862 859 857 854 852 850 848 846 845 843 841 840 839 838 837 837 836 834 832 829 826 823 819 817 815 814 812 810 807 805 803 801 800 800 800 799 799 798 797 797 796 796 795 795 795 795 796 796 794 794 792
813 818 815 811 812 811 811 813 812 814 818 815 806 808 811 815 843 866 859 856 867 878 884 886 887 888 888 889 889 888 889 888 887 887 885 885 884 882 881 879 877 875 873 871 869 866 864 862 859 857 855 853 852 849 847 846 844 843 842 841 840 839 838 836 833 830 827 824 822 819 817 817 815 813 811 809 806 804 803 802 802 801 801 800 799 799 798 797 797 797 797 797 796 796 793 792 790
815 816 811 810 814 814 816 816 816 820 822 815 806 806 809 813 838 862 862 862 869 876 883 885 887 889 889 890 890 890 890 889 889 888 887 886 885 884 882 880 878 876 875 872 870 868 866 864 862 859 858 857 855 853 851 849 847 846 845 844 843 842 840 838 835 833 830 828 825 823 821 820 819 816 814 812 809 807 806 805 804 803 803 802 801 800 799 798 798 797 797 796 795 794 791 790 789
817 815 810 813 817 817 821 822 824 827 822 815 811 812 811 809 835 867 874 874 875 874 879 885 888 890 891 891 891 891 890 890 890 888 888 887 885 885 882 881 880 878 876 874 872 871 868 867 865 862 861 859 858 857 854 853 851 849 848 847 846 845 843 842 840 838 835 833 831 828 826 824 822 819 816 814 811 809 807 806 806 805 804 804 803 801 800 799 798 798 797 796 794 792 791 789 788
819 816 813 820 824 827 830 830 833 830 820 820 819 814 814 824 854 880 880 880 881 877 881 886 889 890 891 891 890 891 890 890 890 889 889 888 886 886 884 883 882 879 878 877 874 873 871 869 867 865 864 863 861 860 858 857 855 853 852 850 849 848 847 845 844 842 840 838 837 833 830 828 826 823 819 817 814 812 810 809 808 807 807 806 805 804 802 799 798 798 797 796 794 793 791 790 789
821 818 817 822 828 833 836 837 841 833 820 824 823 813 814 834 869 888 883 884 885 882 885 886 888 890 889 890 890 890 891 890 890 890 889 890 888 887 887 885 884 882 881 879 877 875 873 872 870 868 867 866 864 863 861 860 858 857 856 854 853 851 850 849 847 846 844 843 841 838 836 834 831 827 824 821 819 816 814 812 811 810 809 808 807 805 803 801 799 798 798 796 795 794 793 792 791
828 829 826 822 824 828 829 830 833 830 826 826 821 819 820 831 866 889 885 886 886 884 888 886 887 890 888 890 891 889 892 891 891 892 890 891 890 889 888 887 886 885 883 882 880 878 876 874 873 871 870 868 866 865 863 862 861 860 859 857 856 854 853 852 850 849 847 845 844 842 839 838 834 831 828 826 823 819 817 816 814 812 811 810 808 806 804 802 801 800 798 797 796 795 793 793 792
831 835 831 826 830 832 831 832 833 832 834 831 823 838 862 868 882 893 885 885 889 885 888 888 887 890 889 890 891 890 892 892 892 893 892 892 891 890 890 888 887 886 885 884 882 880 879 877 875 874 872 871 869 867 866 864 863 862 861 859 858 856 855 853 852 850 849 847 845 843 841 839 836 833 831 828 825 823 820 819 817 815 813 812 810 808 806 804 802 801 799 797 796 795 794 793 793
830 834 834 835 841 838 833 834 839 838 835 831 822 839 878 884 879 889 887 885 889 886 887 889 888 890 890 890 892 892 893 893 893 893 893 893 892 891 891 889 889 888 886 885 884 882 881 879 878 876 874 873 871 870 868 866 865 863 862 861 859 858 856 854 853 851 849 848 846 844 841 839 836 834 832 830 827 826 824 821 819 817 816 814 812 810 808 806 804 803 801 799 797 796 795 794 794
835 835 837 841 842 841 839 835 838 842 836 830 818 822 849 855 858 888 896 884 887 887 886 889 889 889 891 891 893 893 893 894 894 894 894 894 893 892 892 891 890 889 888 887 885 884 883 881 879 877 876 874 872 871 870 868 866 865 863 862 860 859 857 855 854 852 850 848 846 844 842 840 838 836 834 832 830 827 826 824 821 819 818 816 814 812 810 808 807 805 803 801 799 798 796 796 795
843 844 846 845 838 836 842 839 838 843 836 829 824 821 837 850 863 889 893 882 885 887 886 889 889 890 891 891 893 893 893 894 894 894 894 894 894 893 892 892 890 889 889 887 886 885 883 882 880 879 878 876 874 873 871 870 868 867 865 864 862 860 859 857 855 853 851 849 846 844 843 841 839 837 835 833 831 829 827 825 823 822 820 818 816 814 812 810 808 807 804 802 801 799 798 797 796
849 848 849 851 847 841 845 843 840 843 836 834 833 824 840 869 881 884 882 879 882 883 886 888 887 888 890 890 893 893 893 894 894 895 895 894 895 894 893 893 891 890 889 888 887 885 884 882 881 880 879 877 875 874 872 871 869 868 867 865 864 862 860 858 856 854 852 850 848 846 844 842 840 838 836 834 832 831 829 827 825 823 821 819 817 815 813 811 809 808 806 803 802 801 799 798 797
859 852 849 852 853 850 851 849 852 853 840 840 841 828 844 880 887 880 878 876 878 881 883 885 886 888 890 890 892 893 893 894 894 895 895 895 895 894 894 893 892 891 889 888 887 886 885 883 881 881 879 877 876 874 873 872 870 869 867 866 864 862 861 859 857 855 853 851 850 847 845 844 841 839 837 835 833 832 830 829 827 825 823 820 818 816 814 812 811 809 807 805 803 801 800 799 797
874 869 867 868 864 855 849 849 864 871 854 849 850 837 851 881 884 879 877 872 876 880 880 884 887 888 889 890 892 892 893 894 894 895 895 895 895 895 894 894 892 891 890 889 888 886 885 884 882 881 880 878 877 875 874 873 871 870 868 866 865 863 861 860 858 856 854 852 850 848 846 844 842 840 838 836 834 832 831 829 827 825 824 822 820 818 815 813 812 810 808 806 804 803 801 800 798